[[{"header":{"parameterUnit":"m.s-1","parameterCategory":1,"la1":30.2991,"la2":30.254,"lo1":-89.0895,"lo2":-89.0444,"dy":0.0017,"dx":0.0017,"nx":28,"ny":28,"refTime":"2025-02-27T09:00:00:Z","depth":0,"parameterNumber":2,"parameterNumberName":"U-component_of_WINDS"},"data":[0,0,0,0,0,0,0,0,0,0,0,0,0,0,0,0,0,0,0,0,0,0,0,0,0,0,0,0,0,0,0,0,0,0,0,0,0,0,0,0,0,0,0,0,0,0,0,0,0,0,0,0,0,0,0,0,0,0,1.3486,1.3486,0,1.3454,1.3454,1.3453,1.3402,1.3401,1.34,1.34,1.3368,1.3368,1.3368,0,0,0,0,0,0,0,0,0,0,0,0,0,1.3505,1.3505,1.3486,1.3486,1.3485,1.3454,1.3454,1.3453,1.3402,1.3401,1.34,1.3399,1.3368,1.3368,1.3368,0,0,0,0,0,0,0,0,0,0,0,0,0,1.3487,1.3505,1.3486,1.3456,1.3453,1.3454,1.3454,1.3453,1.3403,1.3401,1.34,1.3399,1.3368,1.3368,1.3368,1.3397,0,0,1.3369,1.3369,0,0,0,0,0,0,0,0,1.3488,1.3487,1.3461,1.3458,1.3455,1.3431,1.3449,1.3434,1.3403,1.3422,1.34,1.3398,1.339,1.3388,1.3386,1.3395,1.3394,1.3369,1.3369,1.3369,1.3369,0,0,0,0,0,0,0,1.349,1.3488,1.3473,1.3461,1.3457,1.3445,1.3441,1.3446,1.3414,1.342,1.3416,1.3413,1.3388,1.3386,1.3384,1.3393,1.3369,1.3369,1.3369,1.3369,1.3424,1.3426,0,0,0,0,0,0,1.3495,1.3489,1.3474,1.3472,1.3468,1.3446,1.3441,1.344,1.3414,1.3409,1.3414,1.3411,1.3386,1.3384,1.3383,1.3414,1.3369,1.3369,1.3369,1.3423,1.3425,1.3426,0,0,0,0,0,0,1.3496,1.3494,1.3476,1.348,1.3476,1.3447,1.3446,1.344,1.3437,1.341,1.3404,1.3417,1.3385,1.3383,1.3393,1.3412,1.3369,1.3369,1.3421,1.3424,1.3426,1.3476,0,0,0,0,0,0,1.3496,1.3495,1.3505,1.348,1.3476,1.3486,1.3447,1.344,1.3437,1.3432,1.3411,1.3406,1.3384,1.3394,1.3394,1.3411,1.3369,1.3419,1.3422,1.3425,1.3473,1.348,1.3486,0,0,0,0,0,1.3497,1.3521,1.3505,1.3504,1.3488,1.3487,1.3485,1.3458,1.3439,1.3449,1.3431,1.3407,1.3411,1.3395,1.3395,1.3413,1.3418,1.3422,1.3425,1.347,1.3478,1.3486,0,0,0,0,0,0,1.3548,1.3517,1.35,1.3516,1.3504,1.3479,1.349,1.3469,1.3463,1.3459,1.3427,1.3423,1.3437,1.3426,1.341,1.3439,1.3411,1.3414,1.3445,1.3453,1.3459,1.3461,1.3369,0,0,0,0,0,1.3561,1.3563,1.3535,1.3552,1.3547,1.352,1.3519,1.3499,1.3487,1.3482,1.3465,1.3454,1.3453,1.3453,1.345,1.3471,1.3466,1.3484,1.349,1.3496,1.3499,1.3509,1.3516,1.3437,1.3437,1.3437,0,0,1.3588,1.3571,1.3574,1.3562,1.3551,1.3553,1.3516,1.3521,1.3522,1.3483,1.3491,1.3479,1.3464,1.348,1.3487,1.3472,1.352,1.35,1.3505,1.3504,1.3513,1.3521,1.3527,1.3439,1.3439,1.3439,0,0,1.3638,1.3626,1.3638,1.3628,1.3612,1.3593,1.3597,1.3574,1.3564,1.3572,1.3542,1.3545,1.3543,1.3534,1.3529,1.3577,1.3554,1.3577,1.3611,1.3622,1.3628,1.3633,1.3649,1.3656,1.358,1.3581,1.3581,0,1.3673,1.3675,1.3647,1.3653,1.3649,1.3613,1.3625,1.3617,1.3601,1.3599,1.3583,1.358,1.3568,1.3581,1.3593,1.3591,1.3593,1.3579,1.3629,1.3634,1.3639,1.3654,1.366,1.3583,1.3583,1.3583,1.3583,0,1.372,1.3722,1.3734,1.3719,1.3716,1.3725,1.3699,1.3699,1.3681,1.3665,1.3673,1.3658,1.3651,1.3653,1.3636,1.3664,1.3655,1.3635,1.3606,1.365,1.3663,1.3669,1.3587,1.3586,1.3586,1.3585,0,0,1.3799,1.3769,1.3774,1.3766,1.3746,1.3748,1.3756,1.3749,1.375,1.3741,1.3747,1.3747,1.3727,1.3722,1.3703,1.3712,1.375,1.369,1.369,1.3701,1.3781,1.3795,1.3802,1.3736,1.3737,1.3738,1.3781,0,1.3844,1.3855,1.383,1.3847,1.3849,1.3816,1.3823,1.3812,1.3797,1.3797,1.3781,1.3781,1.3756,1.3753,1.3761,1.3744,1.3766,1.3741,1.3741,1.3741,1.3744,1.3809,1.3825,1.3867,1.3787,1.3787,1.3788,0,1.3897,1.389,1.3908,1.3887,1.3886,1.3893,1.3885,1.3885,1.3872,1.3861,1.3856,1.3833,1.384,1.3814,1.3823,1.3806,1.3805,1.3797,1.3798,1.3796,1.3766,1.3808,1.3879,1.3885,1.3796,1.3796,1.3795,0,1.3952,1.3947,1.3957,1.3952,1.3928,1.3934,1.3924,1.391,1.3907,1.3901,1.3899,1.3894,1.389,1.3887,1.3864,1.3847,1.3876,1.3847,1.3867,1.3867,1.3873,1.3872,1.3944,1.3875,1.3875,1.3875,1.3874,0,1.4004,1.4016,1.3981,1.3987,1.3999,1.3971,1.3984,1.3972,1.396,1.3963,1.3934,1.3938,1.3908,1.3909,1.3891,1.3901,1.3901,1.3892,1.3886,1.3893,1.3894,1.3891,1.3887,1.3876,1.3876,1.3875,1.3875,0,1.4066,1.4044,1.4052,1.4029,1.4024,1.4034,1.4014,1.4019,1.4003,1.4007,1.4007,1.3982,1.3981,1.3959,1.3953,1.3942,1.3958,1.3949,1.3962,1.3959,1.3979,1.3977,1.4049,1.4057,1.3985,1.3985,1.3986,0,1.41,1.4108,1.4086,1.4086,1.4078,1.4078,1.4075,1.4049,1.4047,1.4033,1.404,1.4037,1.4033,1.4033,1.4015,1.4011,1.4,1.4026,1.3999,1.4006,1.3999,1.3998,1.3999,1.4031,1.4032,1.4033,1.4033,0,1.4162,1.415,1.4147,1.414,1.4138,1.4132,1.4123,1.4125,1.4096,1.4096,1.4095,1.4092,1.4086,1.4083,1.4076,1.4067,1.4045,1.4042,1.4046,1.4052,1.4059,1.4054,1.3976,1.404,1.404,1.4039,1.4039,1.4038,1.421,1.4215,1.4201,1.4198,1.4189,1.4183,1.4186,1.417,1.4169,1.4161,1.4147,1.4148,1.4135,1.4123,1.4116,1.4117,1.4104,1.411,1.4111,1.4112,1.4116,1.4061,1.4116,1.4115,1.4115,1.4115,1.4115,0,1.4269,1.4258,1.4256,1.4245,1.4244,1.4224,1.4214,1.4214,1.4215,1.4205,1.4202,1.4201,1.4198,1.418,1.4176,1.418,1.417,1.4179,1.4178,1.4176,1.4128,1.4125,1.4187,1.4187,1.4187,1.4187,1.4187,1.4187,1.4299,1.4307,1.4294,1.4298,1.4287,1.4288,1.4284,1.4277,1.4269,1.4269,1.4266,1.4255,1.4242,1.4236,1.4233,1.4228,1.4227,1.424,1.4231,1.4187,1.4179,1.4173,1.4169,1.424,1.424,1.4278,1.4279,1.4279]},{"header":{"parameterUnit":"m.s-1","parameterCategory":1,"la1":30.2991,"la2":30.254,"lo1":-89.0895,"lo2":-89.0444,"dy":0.0017,"dx":0.0017,"nx":28,"ny":28,"refTime":"2025-02-27T09:00:00:Z","depth":0,"parameterNumber":3,"parameterNumberName":"V-component_of_WINDS"},"data":[0,0,0,0,0,0,0,0,0,0,0,0,0,0,0,0,0,0,0,0,0,0,0,0,0,0,0,0,0,0,0,0,0,0,0,0,0,0,0,0,0,0,0,0,0,0,0,0,0,0,0,0,0,0,0,0,0,0,0.3732,0.3732,0,0.3665,0.3665,0.3664,0.3623,0.3623,0.3623,0.3623,0.3551,0.3549,0.3547,0,0,0,0,0,0,0,0,0,0,0,0,0,0.3823,0.3821,0.3733,0.3732,0.3731,0.3665,0.3665,0.3664,0.3623,0.3623,0.3623,0.3623,0.3551,0.3549,0.3547,0,0,0,0,0,0,0,0,0,0,0,0,0,0.3772,0.3821,0.3733,0.3703,0.37,0.3666,0.3665,0.3663,0.3623,0.3623,0.3623,0.3623,0.3552,0.355,0.3547,0.3536,0,0,0.3539,0.3538,0,0,0,0,0,0,0,0,0.3775,0.3769,0.3708,0.3705,0.3701,0.3653,0.367,0.3621,0.3624,0.3652,0.3623,0.3623,0.3585,0.3579,0.3567,0.3533,0.353,0.3539,0.3537,0.3536,0.3535,0,0,0,0,0,0,0,0.3779,0.3772,0.3706,0.3707,0.3703,0.3692,0.3685,0.366,0.3621,0.365,0.3647,0.3639,0.3583,0.357,0.3565,0.3529,0.3539,0.3536,0.3535,0.3534,0.3482,0.3482,0,0,0,0,0,0,0.3787,0.3775,0.3708,0.3704,0.3738,0.3691,0.3682,0.3668,0.3621,0.3613,0.364,0.3638,0.3574,0.3568,0.3563,0.3547,0.3536,0.3534,0.3532,0.3482,0.3482,0.3482,0,0,0,0,0,0,0.379,0.3782,0.3711,0.3738,0.3729,0.3689,0.3674,0.3667,0.3654,0.3613,0.3606,0.3634,0.3574,0.3566,0.3543,0.3544,0.3532,0.353,0.3482,0.3482,0.3482,0.3516,0,0,0,0,0,0,0.3792,0.3783,0.3779,0.3739,0.3727,0.3694,0.3674,0.3666,0.365,0.3647,0.3606,0.3599,0.3573,0.3547,0.3541,0.354,0.3528,0.3481,0.3482,0.3482,0.3514,0.3517,0.352,0,0,0,0,0,0.3796,0.379,0.3779,0.3771,0.3722,0.3694,0.3687,0.3658,0.3651,0.3646,0.362,0.36,0.3545,0.3545,0.3537,0.3536,0.3481,0.3482,0.3482,0.3513,0.3517,0.352,0,0,0,0,0,0,0.383,0.3785,0.3772,0.3753,0.3728,0.3687,0.368,0.3663,0.3638,0.3636,0.36,0.3591,0.3572,0.3552,0.3553,0.3523,0.3511,0.351,0.3537,0.354,0.3543,0.3548,0.3526,0,0,0,0,0,0.3836,0.3818,0.3779,0.3766,0.3754,0.372,0.3706,0.3687,0.3658,0.3647,0.3619,0.3591,0.3568,0.3553,0.3529,0.3511,0.3502,0.3507,0.3509,0.3511,0.3511,0.35,0.3502,0.3484,0.3484,0.3484,0,0,0.3847,0.382,0.3811,0.3773,0.375,0.3732,0.3711,0.3692,0.3677,0.3643,0.3621,0.3599,0.3566,0.3546,0.3536,0.3528,0.3514,0.3512,0.3514,0.3512,0.3501,0.3502,0.3504,0.3484,0.3484,0.3484,0,0,0.3858,0.3836,0.3824,0.3802,0.377,0.3747,0.3744,0.3706,0.3691,0.3667,0.3642,0.3624,0.3584,0.3561,0.3545,0.3548,0.3529,0.3541,0.3554,0.3544,0.3546,0.3547,0.3548,0.3549,0.3541,0.3541,0.3541,0,0.3876,0.3848,0.3819,0.3802,0.3785,0.3756,0.3742,0.3723,0.3683,0.3672,0.3665,0.3615,0.359,0.3565,0.3566,0.3553,0.3548,0.3545,0.3548,0.3549,0.3549,0.355,0.355,0.3542,0.3542,0.3542,0.3542,0,0.3871,0.3852,0.3845,0.381,0.3793,0.3778,0.3746,0.3732,0.3714,0.3692,0.3668,0.3638,0.3607,0.36,0.3581,0.3572,0.3568,0.3555,0.3542,0.3553,0.3553,0.3553,0.3545,0.3544,0.3544,0.3543,0,0,0.3901,0.3851,0.3849,0.3833,0.3795,0.3779,0.3762,0.3734,0.3722,0.3696,0.3681,0.3648,0.3636,0.3617,0.3596,0.3588,0.3592,0.3575,0.3574,0.3579,0.3579,0.359,0.359,0.358,0.358,0.358,0.3582,0,0.3906,0.3876,0.385,0.3829,0.3811,0.3782,0.3768,0.3742,0.3721,0.3702,0.3678,0.3656,0.3641,0.363,0.362,0.3594,0.3592,0.3593,0.3564,0.3564,0.3573,0.359,0.3601,0.3604,0.3582,0.3582,0.3582,0,0.3908,0.3885,0.3863,0.3827,0.3819,0.3806,0.3778,0.376,0.3731,0.3716,0.3696,0.3674,0.3654,0.3644,0.3615,0.3617,0.3604,0.3589,0.3589,0.3584,0.3573,0.3586,0.3605,0.3606,0.3582,0.3582,0.3582,0,0.3933,0.3896,0.3877,0.3864,0.3823,0.3814,0.3796,0.3767,0.3752,0.3727,0.3716,0.3689,0.3674,0.3653,0.3624,0.3619,0.3599,0.3586,0.3586,0.3587,0.3582,0.3583,0.3599,0.3575,0.3575,0.3575,0.3575,0,0.3941,0.3928,0.3888,0.3877,0.3862,0.3831,0.3817,0.3796,0.377,0.3754,0.3728,0.3713,0.3676,0.3656,0.3633,0.3613,0.3607,0.3594,0.3588,0.3596,0.3598,0.3586,0.3585,0.3575,0.3575,0.3575,0.3575,0,0.3965,0.3938,0.3916,0.3879,0.3869,0.386,0.3827,0.3815,0.3793,0.3773,0.3766,0.3731,0.3706,0.3676,0.3641,0.3626,0.3608,0.3599,0.3619,0.3615,0.3616,0.3617,0.3625,0.3625,0.3601,0.3602,0.3602,0,0.3972,0.3962,0.3924,0.3912,0.3896,0.3876,0.3861,0.383,0.3815,0.3782,0.3773,0.3747,0.3725,0.3687,0.3657,0.3631,0.3621,0.3626,0.3617,0.3625,0.3621,0.3622,0.362,0.3628,0.3628,0.3629,0.3629,0,0.3988,0.3975,0.3954,0.3929,0.3912,0.3891,0.3868,0.3859,0.3824,0.3808,0.3783,0.3766,0.3732,0.3706,0.3676,0.3656,0.3637,0.3632,0.3631,0.3639,0.365,0.3644,0.3625,0.3632,0.3632,0.3632,0.3631,0.3631,0.4003,0.3993,0.3965,0.3943,0.3923,0.3903,0.3889,0.3866,0.3846,0.3816,0.3799,0.3775,0.3746,0.3704,0.3685,0.3665,0.3658,0.3656,0.3655,0.3655,0.3657,0.3654,0.366,0.3659,0.3659,0.3659,0.3659,0,0.4017,0.3998,0.3978,0.3948,0.3931,0.3915,0.3889,0.3876,0.3855,0.383,0.3809,0.3781,0.3756,0.3725,0.3698,0.3688,0.3678,0.3682,0.3682,0.3678,0.3666,0.367,0.369,0.369,0.369,0.369,0.369,0.369,0.4022,0.4004,0.3988,0.396,0.394,0.3918,0.3904,0.3885,0.3865,0.3835,0.3815,0.3795,0.3768,0.3739,0.3715,0.3706,0.3697,0.3704,0.3692,0.3681,0.3679,0.3676,0.368,0.3702,0.3702,0.3706,0.3706,0.3706]}]]